Location: Lugrin
(46.4033°N, 6.6674°E)
Time: 17:33:14
(UTC+00:00)

Resurs 1-3 - Pass Details

Date: 18 September 2020
Orbit: 631 x 632 km, 97.9° (Epoch: 29 October)

Event Time Altitude Azimuth Distance (km) Brightness Sun altitude
Exits shadow 20:01:12 56° 208° (SSW) 752 3.9 -24.3°
Maximum altitude 20:01:53 67° 258° (WSW) 689 3.8 -24.4°
Drops below altitude 10° 20:06:17 10° 342° (NNW) 2,025 6.8 -25.0°
Sets 20:08:31 0° 345° (NNW) 2,937 7.7 -25.3°
